Weather History for KMQY - February, 2013

Change the Weather History Date:

Wednesday, February 27, 2013

  Actual Average Record
Temperature  
Mean Temperature 40 °F -  
Max Temperature 41 °F 51 °F 77 °F (2011)
Min Temperature 39 °F 37 °F 17 °F (2002)
Degree Days  
Heating Degree Days 25    
Moisture  
Dew Point 32 °F    
Average Humidity 73    
Maximum Humidity 81    
Minimum Humidity 65    
Precipitation  
Precipitation 0.00 in - - ()
Sea Level Pressure  
Sea Level Pressure 29.90 in    
Wind  
Wind Speed 13 mph (West)    
Max Wind Speed 16 mph    
Max Gust Speed 24 mph    
Visibility 10 miles    
Events Rain    
Averages and records for this station are not official NWS values.
T = Trace of Precipitation, MM = Missing Value Source: NWS Daily Summary

Daily Weather History Graph

Daily Weather History Graph

Search for Another Location

Airport or City:

Trip Planner

Search our weather history database for the weather conditions in past years. The results will help you decide how hot, cold, wet, or windy it might be!

Date:

Astronomy

Feb. 27, 2013 Rise Set
Actual Time 6:18 AM CST 5:39 PM CST
Civil Twilight 5:52 AM CST 6:05 PM CST
Nautical Twilight 5:23 AM CST 6:34 PM CST
Astronomical Twilight 4:53 AM CST 7:04 PM CST
Moon 7:53 PM CST (2/27) 6:58 AM CST (2/27)
Length of Visible Light 12h 12m
Length of Day
11h 20m
Waning Gibbous, 96% of the Moon is Illuminated
Feb 27
Waning Gibbous
Mar 4
Last Quarter
Mar 11
New
Mar 19
First Quarter
Mar 27
Full

Hourly Weather History & Observations

Time (CST) Temp. Windchill Dew Point Humidity Pressure Visibility Wind Dir Wind Speed Gust Speed Precip Events Conditions
12:56 AM 41.0 °F 32.8 °F 34.0 °F 76% 29.80 in 10.0 mi West 16.1 mph 24.2 mph N/A   Overcast
1:56 AM 41.0 °F 32.8 °F 32.9 °F 73% 29.81 in 10.0 mi West 16.1 mph - N/A   Overcast
2:56 AM 39.9 °F 33.9 °F 32.9 °F 76% 29.82 in 10.0 mi West 9.2 mph - N/A   Overcast
3:56 AM 39.9 °F 32.9 °F 32.9 °F 76% 29.84 in 10.0 mi West 11.5 mph - N/A   Overcast
4:56 AM 39.9 °F 33.9 °F 32.9 °F 76% 29.84 in 10.0 mi WSW 9.2 mph - N/A   Overcast
6:56 AM 39.9 °F 33.9 °F 32.0 °F 73% 29.88 in 10.0 mi WSW 9.2 mph - N/A   Overcast
7:42 AM 39.2 °F 32.0 °F 32.0 °F 75% 29.87 in 10.0 mi West 11.5 mph - N/A   Mostly Cloudy
7:56 AM 39.9 °F 33.4 °F 32.0 °F 73% 29.91 in 10.0 mi West 10.4 mph - N/A   Overcast
8:09 AM 39.2 °F 33.0 °F 32.0 °F 75% 29.88 in 10.0 mi West 9.2 mph - N/A   Overcast
8:56 AM 39.9 °F 32.5 °F 31.1 °F 71% 29.91 in 10.0 mi WSW 12.7 mph - N/A   Overcast
10:06 AM 41.0 °F 34.3 °F 30.2 °F 65% 29.88 in 10.0 mi WSW 11.5 mph - N/A   Overcast
10:18 AM 39.2 °F 31.2 °F 30.2 °F 70% 29.89 in 10.0 mi West 13.8 mph 19.6 mph N/A   Overcast
10:56 AM 39.9 °F 31.8 °F 31.1 °F 71% 29.93 in 10.0 mi WSW 15.0 mph - N/A   Overcast
11:56 AM 41.0 °F 33.5 °F 31.1 °F 68% 29.91 in 10.0 mi WSW 13.8 mph - N/A   Overcast
12:56 PM 41.0 °F 34.3 °F 31.1 °F 68% 29.90 in 10.0 mi WSW 11.5 mph - N/A   Overcast
1:56 PM 41.9 °F 34.3 °F 31.1 °F 66% 29.90 in 10.0 mi West 15.0 mph - N/A   Overcast
2:56 PM 39.9 °F 31.4 °F 34.0 °F 79% 29.92 in 10.0 mi West 16.1 mph - 0.00 in Rain Light Rain
3:03 PM 39.2 °F 30.8 °F 33.8 °F 81% 29.88 in 10.0 mi West 15.0 mph - N/A   Overcast
3:56 PM 41.0 °F 34.3 °F 34.0 °F 76% 29.92 in 10.0 mi West 11.5 mph - N/A   Overcast
4:14 PM 39.2 °F 31.6 °F 33.8 °F 81% 29.89 in 10.0 mi West 12.7 mph - N/A   Overcast
4:56 PM 41.0 °F 36.4 °F 32.9 °F 73% 29.94 in 10.0 mi West 6.9 mph - N/A   Overcast
5:03 PM 41.0 °F 35.2 °F 33.8 °F 76% 29.90 in 10.0 mi West 9.2 mph - N/A   Overcast
5:21 PM 41.0 °F 35.2 °F 33.8 °F 76% 29.90 in 10.0 mi WNW 9.2 mph - N/A   Overcast
5:56 PM 39.9 °F 35.1 °F 32.9 °F 76% 29.95 in 10.0 mi WNW 6.9 mph - N/A   Overcast
6:42 PM 41.0 °F 33.5 °F 32.0 °F 70% 29.91 in 10.0 mi West 13.8 mph - N/A   Overcast
6:56 PM 41.0 °F 33.5 °F 32.0 °F 70% 29.95 in 10.0 mi West 13.8 mph - N/A   Overcast
8:34 PM 39.2 °F 30.8 °F 30.2 °F 70% 29.92 in 10.0 mi West 15.0 mph - N/A   Overcast
8:56 PM 39.9 °F 33.9 °F 29.1 °F 65% 29.96 in 10.0 mi West 9.2 mph 17.3 mph N/A   Overcast
9:56 PM 39.9 °F 33.4 °F 29.1 °F 65% 29.96 in 10.0 mi West 10.4 mph - N/A   Overcast
10:56 PM 39.9 °F 32.9 °F 30.0 °F 68% 29.95 in 10.0 mi West 11.5 mph - N/A   Overcast